Helicity
86 75 73 76 75 82 94 90 94 93 85 78 83 74 62 47 50 43 44 56 50 64 60 72 93 87 44 68 56 86 102 89 90 94 93 95 126 105 65 31 54 132 108 43 -6 -14 53
90 91 99 106 99 95 82 83 90 89 87 78 81 87 100 91 70 52 58 57 59 66 70 74 88 72 12 50 34 58 71 88 87 105 98 100 91 72 63 52 63 70 75 65 -31 1 50
77 80 77 85 96 87 100 102 93 81 86 75 75 81 74 76 94 82 83 94 83 76 87 87 80 38 39 56 56 70 68 87 105 84 84 67 93 163 134 71 34 20 -11 -69 -30 -13 9
89 80 79 85 89 88 92 76 80 88 88 83 60 61 74 75 78 93 112 120 120 126 115 94 59 20 35 38 50 -2 50 46 59 55 64 46 113 155 154 74 43 5 -6 43 -5 -38 9
89 91 88 81 83 96 95 86 80 82 82 81 72 64 54 64 81 97 132 143 182 122 91 81 81 55 38 49 65 132 120 66 111 64 73 113 144 145 166 126 49 55 29 26 -14 -24 -22
100 92 85 88 91 95 98 97 85 83 75 74 67 62 54 55 61 82 115 192 95 56 154 125 134 83 63 39 91 84 53 87 127 123 128 143 171 183 194 197 100 93 80 85 45 10 -21
107 98 78 90 81 83 106 105 99 92 80 77 67 62 71 54 55 80 99 31 69 89 172 173 155 108 61 84 62 90 112 96 74 179 185 191 190 215 214 158 119 77 124 48 5 75 4
69 101 87 83 79 68 81 101 95 96 90 91 71 62 57 61 64 89 3 -6 21 37 -5 59 64 50 2 69 45 3 119 110 143 137 198 202 71 148 116 85 55 45 70 -10 -19 33 -8
85 71 90 100 83 79 73 87 94 98 93 83 72 63 64 61 56 47 40 -7 66 41 -42 -83 66 117 120 119 105 -4 110 115 109 159 175 219 159 90 183 100 82 42 85 3 89 118 31
113 113 90 86 92 86 71 82 82 83 91 81 76 70 64 69 59 74 72 38 63 20 -45 -36 -4 -6 70 194 84 50 61 173 137 104 148 137 47 95 130 75 138 25 52 23 57 83 26
90 91 88 70 86 77 76 82 84 75 76 77 82 81 81 73 61 90 46 53 75 7 39 28 44 26 41 62 138 99 125 224 196 171 164 180 99 99 110 29 139 57 27 71 25 -9 19
98 94 72 53 72 81 80 72 75 74 79 75 72 74 75 84 81 94 21 90 73 73 75 142 96 103 93 55 60 35 84 231 204 173 136 95 74 94 111 46 134 33 86 129 147 131 -32
75 65 64 86 81 69 59 63 65 62 62 63 62 63 81 91 93 83 56 149 131 141 179 194 285 279 239 181 166 104 46 114 289 208 96 139 46 115 103 108 115 145 168 164 142 106 -42
68 74 59 46 39 56 57 54 64 63 63 64 59 65 104 70 82 95 109 245 174 150 158 210 247 312 298 292 200 198 124 146 145 218 110 171 72 90 107 93 186 205 211 240 126 118 -15
53 53 57 48 48 55 59 62 56 52 45 44 54 103 112 39 104 131 236 289 285 213 297 300 331 296 280 288 247 253 234 196 77 149 183 77 103 87 110 183 127 153 228 148 184 156 99
37 55 54 53 54 51 50 49 46 43 39 39 96 105 104 81 118 180 285 257 272 306 317 322 316 276 299 331 320 198 259 203 232 225 96 157 104 90 95 116 110 138 138 222 269 128 118
32 37 58 58 57 59 51 38 35 34 40 12 108 139 85 169 163 231 274 341 284 291 301 257 139 72 56 41 155 181 169 261 167 314 212 143 74 99 78 140 164 217 155 188 176 201 136
33 32 42 49 45 50 38 36 33 40 39 45 129 162 107 182 222 278 212 287 258 181 192 196 151 113 101 109 -4 137 73 100 42 -4 259 240 126 138 -3 78 135 123 175 215 223 259 180
8 14 18 24 28 28 32 32 35 43 38 108 145 153 178 184 245 225 185 102 131 178 184 162 104 45 27 83 109 -31 -9 -108 -61 -68 91 252 227 154 115 32 3 147 210 122 173 211 207
-8 6 14 20 25 26 31 34 40 42 27 87 132 209 240 273 263 168 132 94 112 39 59 139 157 139 89 28 53 72 44 70 14 26 -11 -31 105 160 156 125 92 125 185 187 148 171 200
11 9 18 30 30 35 44 52 48 47 20 88 166 204 273 204 242 152 133 93 100 101 92 37 73 25 49 2 -46 -27 98 157 8 31 -28 -16 44 152 151 92 93 141 204 249 252 155 164
9 16 22 35 49 46 46 38 50 54 12 95 234 310 294 277 131 148 130 94 93 77 123 104 67 66 39 43 35 11 71 62 -43 58 -28 18 44 189 148 146 114 116 115 115 227 252 144
-14 -5 -26 -24 6 27 40 44 50 44 36 138 182 181 267 163 186 148 170 121 67 63 51 20 56 58 62 67 48 33 109 97 63 18 -90 -78 64 203 109 151 271 240 65 101 121 186 284
11 29 38 18 -9 -28 -36 -38 -41 -23 8 168 194 211 168 87 47 40 62 86 104 108 72 63 26 74 54 92 151 98 48 -2 79 14 33 -89 -48 147 214 187 230 90 8 62 80 45 168
45 28 31 24 16 20 8 -7 -17 -26 -5 31 162 206 140 12 63 19 2 56 15 51 105 117 49 40 32 21 74 70 75 148 82 -3 -13 114 5 -7 161 238 209 102 46 70 93 107 118
3 5 -14 -24 -8 12 16 17 14 20 -8 139 198 308 298 134 17 149 89 40 101 62 60 107 150 29 -16 -25 45 65 74 86 4 -133 39 13 -25 -63 -15 135 88 51 6 105 166 70 105
33 26 17 14 12 16 29 38 37 43 46 125 204 229 318 206 169 224 218 179 90 75 51 47 81 56 110 93 96 63 69 107 44 -31 0 80 52 11 -89 67 125 112 123 87 139 115 81
19 19 23 23 21 23 28 43 52 47 40 118 165 185 249 283 187 223 216 265 232 101 87 49 114 113 116 158 142 136 72 76 86 22 41 42 34 8 -77 99 81 65 83 85 68 53 42
23 29 31 33 39 35 42 52 54 52 53 63 157 188 187 240 232 172 146 183 235 174 96 97 87 124 84 141 167 164 142 139 81 -31 53 41 5 -64 -9 -43 425 165 54 24 81 98 184
Wind_Speed
56 54 53 51 53 55 56 56 56 58 62 65 68 70 71 71 70 72 72 73 73 73 72 73 73 71 59 54 51 47 41 35 27 23 20 17 17 15 12 15 24 22 23 29 7 4 15
59 59 58 56 54 56 56 56 56 57 60 62 64 67 68 73 73 73 74 75 76 75 73 71 71 66 55 70 48 47 50 41 32 20 24 19 22 13 15 17 21 27 33 21 6 15 15
60 59 59 59 57 57 58 58 57 58 59 62 64 66 69 68 72 73 75 77 78 76 76 71 68 57 61 74 55 56 55 44 37 26 27 28 23 22 21 27 25 32 50 36 8 5 15
61 61 60 58 57 56 56 58 60 59 60 63 65 66 68 69 71 75 78 82 84 83 78 69 57 49 68 57 65 69 62 58 46 46 35 37 26 24 13 23 34 38 32 25 22 20 19
63 62 61 62 61 58 59 60 60 61 61 62 66 68 68 70 72 76 80 85 89 81 60 45 44 51 74 59 54 52 36 45 35 34 36 29 21 18 15 27 30 26 17 16 26 24 23
66 64 65 66 63 62 62 62 63 61 61 63 64 67 69 70 72 75 79 84 65 42 35 33 45 57 58 56 49 48 38 36 36 29 33 25 26 21 20 18 14 23 17 22 23 23 26
67 67 65 67 65 64 68 67 67 64 62 62 63 67 69 71 71 73 75 54 52 52 47 51 49 54 60 53 50 43 43 38 36 36 32 31 35 22 18 13 18 23 21 31 14 12 20
68 71 68 67 66 65 66 68 69 65 64 63 65 66 67 67 69 71 52 45 46 59 76 76 79 92 100 75 72 70 43 39 38 43 38 43 39 35 27 15 13 13 18 7 24 5 30
75 68 68 69 67 66 69 70 70 68 64 64 66 65 67 66 65 49 53 46 53 61 68 74 64 75 84 60 89 96 54 48 49 49 43 44 43 39 31 22 21 17 14 9 14 46 19
81 76 73 71 70 68 67 71 70 69 67 67 67 65 64 65 55 53 50 54 63 59 69 69 57 57 47 48 75 63 50 46 52 52 50 62 62 45 30 29 23 20 15 10 8 34 28
82 83 79 76 75 71 67 67 69 71 68 66 67 64 61 54 57 55 51 64 63 40 73 48 45 41 33 31 53 43 36 54 58 50 46 57 46 38 45 28 27 21 25 15 12 44 32
83 82 81 77 73 71 70 71 70 69 67 66 65 62 57 55 49 55 59 64 40 51 73 50 40 38 42 45 45 38 30 41 49 59 65 66 47 39 36 39 26 34 47 48 39 27 15
77 79 80 75 75 78 79 74 71 68 67 64 62 60 53 47 50 45 57 46 51 59 51 48 46 50 52 48 49 48 37 39 50 54 71 68 72 57 46 48 38 37 44 53 38 17 23
74 78 79 82 82 77 73 72 70 67 66 63 60 58 52 49 44 47 44 46 67 59 63 62 56 60 50 49 47 53 47 46 54 52 54 69 81 64 52 52 46 46 35 43 42 33 20
66 68 77 79 79 74 72 72 69 66 63 59 58 55 53 50 40 38 45 63 64 57 57 57 60 57 52 50 51 52 53 55 50 54 61 58 71 58 51 52 46 57 55 29 43 47 40
53 68 80 83 82 79 74 70 67 64 60 56 54 56 58 40 28 34 56 77 66 58 56 57 59 54 61 59 60 55 54 44 52 47 67 62 71 52 57 48 59 60 44 51 46 37 35
56 59 79 83 82 80 76 70 65 62 57 52 52 62 46 29 27 49 73 73 69 71 61 65 70 75 75 77 71 69 59 57 41 53 57 66 81 66 50 56 56 59 61 56 47 50 48
62 64 75 83 84 81 77 71 66 61 53 51 55 72 34 19 54 61 77 65 64 63 55 65 65 68 72 71 74 73 70 57 56 54 62 54 65 85 93 59 52 64 64 57 62 57 56
71 71 74 80 82 78 76 72 67 63 52 45 62 61 36 29 73 74 66 68 63 65 55 51 53 50 48 63 73 74 76 60 57 58 52 57 64 87 83 77 90 72 62 67 67 58 60
77 87 80 82 79 79 77 73 66 60 52 49 54 67 53 52 58 65 65 65 59 45 61 60 54 56 57 61 62 72 72 61 63 68 60 61 71 87 98 77 59 67 63 61 65 75 68
94 94 89 81 84 80 76 76 71 62 52 48 59 69 55 63 61 55 54 52 56 52 51 48 54 75 79 77 77 83 91 87 73 63 61 60 78 88 97 89 70 63 64 65 70 83 76
98 104 106 99 89 81 70 73 66 58 51 61 64 59 53 56 50 49 50 54 60 72 68 59 65 55 52 65 61 66 67 75 74 59 61 56 70 81 88 82 80 81 72 71 74 78 85
87 87 90 103 108 101 88 73 60 58 56 65 66 65 59 62 59 54 65 101 90 85 76 87 76 72 77 86 85 84 81 78 75 76 62 59 64 69 92 68 67 86 91 88 87 83 79
91 88 85 86 92 96 102 107 104 98 74 77 70 70 84 91 97 102 92 95 95 71 87 64 64 66 80 63 67 79 83 42 88 90 75 66 64 59 68 55 86 81 65 83 93 103 93
82 82 81 81 87 88 97 101 106 91 80 108 91 89 94 106 95 98 97 87 85 89 91 82 87 68 50 53 56 59 57 47 75 93 90 63 53 57 61 67 68 71 63 58 66 90 101
86 85 85 85 86 89 92 97 79 67 83 88 92 69 74 92 112 83 88 90 80 82 83 84 88 82 74 73 63 55 47 37 57 65 73 74 71 63 55 58 75 66 63 53 49 94 65
78 79 81 84 86 87 85 82 83 77 75 78 73 63 65 94 81 61 86 79 70 63 63 60 62 67 37 53 59 66 63 32 61 77 73 70 65 71 75 66 63 59 55 44 64 59 54
77 74 75 80 83 79 78 79 79 77 79 72 77 59 66 69 70 68 66 63 60 69 62 43 33 39 24 38 50 52 61 45 59 67 69 78 70 69 54 60 71 43 38 50 56 73 57
72 71 73 78 78 76 71 63 59 65 72 71 75 66 64 76 63 65 80 62 43 56 65 50 43 26 25 33 40 40 53 46 47 79 67 90 76 65 56 61 72 62 58 51 50 48 54
Wind_Direction
312 312 313 313 312 312 312 313 314 312 310 308 307 305 304 306 306 304 303 302 303 303 303 302 300 303 308 301 300 302 303 317 323 325 329 339 337 352 345 8 351 343 356 354 340 322 11
310 309 310 312 312 311 310 310 311 311 311 311 310 310 308 303 303 305 303 302 300 299 301 301 300 303 301 289 301 306 293 300 301 312 316 322 329 345 345 345 345 343 344 349 269 235 11
307 307 307 307 308 308 309 310 309 308 309 309 309 310 309 311 304 305 303 300 299 298 296 298 298 301 293 280 296 293 291 295 297 301 307 311 316 326 352 335 348 339 332 346 208 154 22
306 305 305 306 307 307 307 306 306 306 306 306 307 307 309 309 308 305 303 299 295 293 293 293 297 301 291 294 291 285 284 282 284 283 297 301 314 317 330 335 332 332 346 2 37 48 31
303 303 304 303 303 304 303 302 304 305 306 307 304 304 304 306 305 304 304 297 293 291 293 295 297 297 290 293 291 291 293 284 278 283 290 301 313 312 326 321 329 339 346 0 356 30 34
302 300 300 299 300 300 300 299 300 302 304 304 304 302 300 301 300 300 301 293 295 311 305 297 294 292 290 291 291 293 300 292 278 274 283 289 296 295 301 304 312 335 341 345 349 13 18
302 301 299 297 297 298 294 294 295 298 301 303 304 301 300 294 300 302 305 313 305 298 299 284 287 282 286 291 292 286 294 293 280 268 260 277 273 238 236 234 309 332 339 329 336 208 5
298 296 297 296 294 293 293 292 292 295 297 299 299 298 297 300 300 302 315 311 310 300 288 280 277 269 249 276 278 267 289 279 272 263 264 269 231 278 281 272 272 295 316 276 330 327 0
295 294 294 294 292 291 290 288 288 289 293 294 294 295 295 299 301 313 306 304 312 309 291 285 286 279 269 270 262 251 272 277 272 265 258 258 280 278 259 262 274 268 278 229 333 330 359
291 291 290 290 289 289 289 285 286 288 289 290 289 292 294 294 299 303 302 304 302 303 289 285 290 287 288 274 269 269 267 264 268 266 264 265 264 284 273 255 268 262 270 247 258 330 340
290 286 285 285 285 285 286 287 285 283 285 287 287 289 291 295 293 293 300 298 299 313 281 298 295 303 306 288 285 293 250 254 258 263 262 266 269 246 266 270 261 277 291 297 243 232 327
289 286 284 280 280 281 283 284 285 285 285 285 285 287 289 290 294 292 300 299 305 292 274 295 303 300 296 283 287 300 283 262 259 262 263 264 276 267 253 264 254 281 286 298 310 314 255
291 286 282 279 280 279 279 280 280 281 282 284 284 284 285 289 288 299 302 295 280 275 292 290 292 298 293 290 282 282 283 252 255 253 257 265 262 267 272 267 266 266 278 283 299 268 226
293 286 281 278 278 277 277 277 278 280 280 280 282 283 285 283 290 295 296 276 270 280 275 286 291 295 291 295 286 281 274 268 261 264 269 259 261 259 263 258 263 261 261 271 291 298 300
297 289 282 278 275 276 277 276 276 277 277 279 280 282 281 282 282 289 275 263 272 275 285 286 284 283 286 288 289 288 277 276 274 258 263 268 264 270 262 257 251 260 259 254 278 291 298
295 290 282 277 275 274 274 274 274 274 275 276 278 278 275 279 274 275 266 264 270 276 286 287 277 283 278 284 286 285 277 284 276 285 262 266 268 274 266 259 249 252 263 264 272 269 279
294 292 281 275 273 272 271 271 271 271 272 273 273 274 280 260 261 264 260 267 274 275 279 281 278 276 275 277 276 276 272 280 291 287 284 270 261 264 272 255 251 249 253 262 268 271 275
290 289 283 276 272 270 268 268 268 267 268 269 269 265 270 240 256 264 262 269 278 279 284 272 277 277 275 274 273 271 269 268 291 295 282 278 268 259 254 265 265 254 251 252 260 265 275
288 285 282 276 272 270 268 266 265 262 260 265 263 267 262 245 258 258 269 268 271 272 272 278 275 273 280 275 269 268 269 275 280 287 283 287 269 260 260 258 256 257 258 257 260 265 261
287 278 279 275 273 269 266 264 262 259 255 254 267 261 262 249 263 257 259 263 264 270 265 268 274 276 278 276 276 269 269 276 279 278 284 288 268 259 254 258 259 257 255 259 256 258 262
277 274 274 274 269 267 265 261 257 254 250 247 256 260 260 256 253 256 252 267 257 261 261 266 272 263 267 271 274 272 267 270 270 271 277 280 272 264 259 257 258 258 254 256 259 260 259
251 255 257 264 267 265 263 259 255 250 243 243 252 256 255 261 250 242 245 250 254 251 252 259 260 268 271 266 271 278 274 265 266 273 269 280 275 273 260 257 253 254 255 256 260 266 263
245 240 236 242 251 255 258 256 249 244 236 248 249 254 252 249 247 243 231 222 232 243 255 246 256 263 260 244 252 241 253 268 264 260 262 273 288 273 257 258 255 254 251 256 258 263 268
247 241 235 230 227 224 223 223 216 206 199 241 244 239 235 234 227 217 227 222 226 250 242 258 259 259 242 276 276 266 256 229 263 249 252 261 278 276 261 257 252 258 261 259 260 256 263
243 240 239 227 227 220 221 218 215 203 199 220 232 231 230 227 232 229 226 235 235 232 235 249 240 252 274 276 282 278 284 300 267 245 245 259 276 280 263 258 263 260 261 264 262 254 254
253 257 247 240 241 239 234 232 202 198 197 235 237 244 243 236 222 241 236 232 239 235 233 229 229 242 255 264 273 279 288 312 273 246 245 244 248 262 276 268 257 259 266 267 269 258 260
277 273 266 259 254 250 248 246 242 240 237 235 242 235 244 240 246 244 239 240 243 248 254 259 252 250 260 263 266 268 275 308 268 238 236 239 250 255 265 272 267 267 276 273 253 264 267
279 277 272 267 260 257 253 248 244 240 236 231 239 233 234 251 252 246 246 246 247 246 253 267 263 265 264 261 269 275 272 286 273 258 254 247 251 257 286 275 258 284 285 267 270 260 272
282 279 274 268 263 259 255 250 244 239 234 231 241 236 236 248 259 251 248 250 237 253 252 256 259 290 278 273 274 285 279 288 291 258 260 245 247 259 268 278 259 272 270 278 281 288 274